STARLINK-34447, 64710

Orbit data source: Space-Track

STARLINK-34447, 64710 is a payload satellite owned by SpaceX/Seattle (US) in LEO that was launched on Sat, 28 Jun 2025 UTC via an FALCON 9 launch vehicle from the Air Force Western Test Range (AFWTR). Payload-class satellites include a variety of spacecraft equipped with specific instruments for various scientific and technological missions. These include communications satellites like Starlink; space stations such as the ISS; scientific satellites like the Hubble; Earth observation satellites from companies like Planet Labs, Umbra, and HawkEye 360; GPS; miniature CubeSats for education and research; and military/defense satellites.

Loading next visibility...
Identifier
64710, 2025-142Q
Orbit
LEO
Last TLE update
3 hours ago
Origin
Manufacturer
SpaceX/Seattle
Mission
Operational spacecraft
Bus & Motor
STARLINK V2MO, Unknown motor
Mass
575 kg wet, ~530 kg dry
Launch date (UTC)
2025-06-28 (3 weeks ago)
Launch vehicle
FALCON 9
Launch site
Air Force Western Test Range (AFWTR)
Object type
Payload
Rocket body
Debris
Shape & HBR
Unknown
Radar Cross Section
Large (>1 m²)

Expand to show TLE details & history

TLE from 3 hours ago
0 STARLINK-34447
1 64710U 25142Q   25199.58335648 -.01243851  00000-0 -21526-1 0  9993
2 64710  70.0001 194.6387 0003851 276.0570 181.8452 15.53407037  4323
Epoch: 2025-07-18T14:00Z
TLE epoch observation values (Epoch: 2025-07-18T14:00:01.999Z)
Latitude
68.66091°
Longitude
160.10744°
Altitude
420.646 km
Speed
7.664 km/s
True Right ascension
20h 26m 59s
True Declination
68° 32' 18"
Sunlit
Object was in daylight at epoch
Visualization orbit readout
Latitude
22.44083°
Longitude
56.27783°
Altitude
410.85 km
Speed
7.666 km/s
Apparent Right ascension
15h 15m 54s
Apparent Declination
-8° 46' 07"
Sunlit
Object is in daylight
Visualization observer readout
Local Sidereal Time
05:32:57
Azimuth
53.801° ENE
Elevation
-46.411°
Doppler factor
1
Orbital elements
Apogee altitude
407.297 km
Perigee altitude
402.073 km
Semi-major axis
6,782.822 km
Eccentricity
0.00039
Inclination
70.0001°
RAAN
194.6387°
Arg. of periapsis
276.057°
True anomaly
181.84378°
Mean anomaly
181.8452°
Eccentric anomaly
181.84449°
Mean motion
3.88533 °/min
Orbital period
92.66 mins
BSTAR
-0.021526
Loading maneuver chart data...
Loading SW <> Apogee altitude chart data...
Loading historical data...
Loading historical data...
Loading historical data...
Loading historical data...
Loading historical data...
Loading historical data...
Loading historical data...
|